sat.trackr.live / text

‹ back to catalog

ONEWEB-0582

NORAD 54649 · 2022-166H

PAYLOAD ACTIVE UNKNOWN

§ Identity

Operator
Country
UK
Launch date
2022-12-08
Launch site
AFETR
Launch vehicle
Mass (kg)
RCS (m²)

Purposes: comms

External: N2YO · Heavens-Above · Gunter

§ Orbital elements

Epoch: 2026-09-20T04:56:29.872320Z

Period
108.94 min
Inclination
87.9285°
Eccentricity
0.0002497
Mean motion
13.21827713 rev/d
Perigee alt
1,175.9 km
Apogee alt
1,179.6 km
Semi-major
7,555.9 km
B*
1.0698e-4
RAAN
225.0621°
Arg perigee
85.4942°
Mean anomaly
274.6477°
Rev number
18,407

§ Raw data

ONEWEB-05821 54649U 22166H   26263.20590130  .00000057  00000+0  10698-3 0  99922 54649  87.9285 225.0621 0002497  85.4942 274.6477 13.21827713184073

JSON: /api/v1/satellites/54649 · /tle

For live sub-satellite position, see the globe view (requires WebGL).

§ Visibility from observer

Set your observer location to see the next 7 days of passes ≥ 10°. The values pass through the URL so the page stays shareable.

No JS? Fill the form by hand. The geolocation button needs JavaScript.